User: anonymous   Login
Location: Unspecified
(0.0000°N, 0.0000°E)
Time: 09:20:34
(UTC+00:00)
Language:

Transit 4A - Orbit

View from above orbital plane
View from above orbital plane
View from above satellite
View from above satellite

Ground track
Ground track

The orbit is defined by the following mean orbital elements,

1 00116U          26110.14409845 +.00000000 +00000-0 +79902-4 0 00007
2 00116  66.8114  32.8595 0080665 310.4702  48.9364 13.92322003    09
Epoch (UTC): 20 April 2026 03:27:30
Eccentricity: 0.0080665
inclination: 66.8114°
perigee height: 862 km
apogee height: 979 km
right ascension of ascending node: 32.8595°
argument of perigee: 310.4702°
revolutions per day: 13.92322003
mean anomaly at epoch: 48.9364°

The dashed part of the orbit path shows where the satellite is in the earth's shadow,  

DLR